TimeEST,TemperatureF,Dew PointF,Humidity,Sea Level PressureIn,VisibilityMPH,Wind Direction,Wind SpeedMPH,Gust SpeedMPH,PrecipitationIn,Events,Conditions,WindDirDegrees,DateUTC
12:15 AM,30.2,21.2,69,30.35,10.0,NE,6.9,-,N/A,,Clear,40,2013-02-23 05:15:00
12:35 AM,30.2,21.2,69,30.35,10.0,NE,4.6,-,N/A,,Clear,50,2013-02-23 05:35:00
12:55 AM,30.2,21.2,69,30.35,10.0,NE,4.6,-,N/A,,Clear,40,2013-02-23 05:55:00
1:15 AM,28.4,21.2,74,30.35,10.0,NE,4.6,-,N/A,,Clear,40,2013-02-23 06:15:00
1:35 AM,28.4,21.2,74,30.34,10.0,NE,3.5,-,N/A,,Clear,40,2013-02-23 06:35:00
1:55 AM,28.4,21.2,74,30.34,10.0,NNE,3.5,-,N/A,,Clear,20,2013-02-23 06:55:00
2:15 AM,28.4,21.2,74,30.33,10.0,NE,5.8,-,N/A,,Clear,40,2013-02-23 07:15:00
2:35 AM,28.4,21.2,74,30.32,10.0,NE,4.6,-,N/A,,Clear,40,2013-02-23 07:35:00
2:55 AM,28.4,21.2,74,30.31,10.0,NE,5.8,-,N/A,,Clear,40,2013-02-23 07:55:00
3:15 AM,26.6,21.2,80,30.31,10.0,NNE,4.6,-,N/A,,Clear,30,2013-02-23 08:15:00
3:35 AM,26.6,23.0,86,30.31,10.0,NNE,4.6,-,N/A,,Mostly Cloudy,30,2013-02-23 08:35:00
3:55 AM,28.4,23.0,80,30.30,10.0,NNE,3.5,-,N/A,,Overcast,20,2013-02-23 08:55:00
4:15 AM,28.4,24.8,86,30.30,10.0,NNE,4.6,-,N/A,,Overcast,30,2013-02-23 09:15:00
4:35 AM,28.4,24.8,86,30.30,10.0,North,3.5,-,N/A,,Overcast,360,2013-02-23 09:35:00
4:55 AM,28.4,24.8,86,30.30,10.0,NNE,8.1,-,N/A,,Overcast,20,2013-02-23 09:55:00
5:15 AM,28.4,24.8,86,30.30,10.0,NNE,6.9,-,N/A,,Overcast,30,2013-02-23 10:15:00
5:35 AM,28.4,24.8,86,30.30,10.0,NNE,5.8,-,N/A,,Overcast,30,2013-02-23 10:35:00
5:55 AM,28.4,24.8,86,30.30,10.0,NNE,4.6,-,N/A,,Overcast,30,2013-02-23 10:55:00
6:15 AM,28.4,24.8,86,30.30,10.0,NNE,4.6,-,N/A,,Overcast,30,2013-02-23 11:15:00
6:35 AM,28.4,24.8,86,30.30,10.0,NNE,4.6,-,N/A,,Overcast,30,2013-02-23 11:35:00
6:55 AM,30.2,24.8,80,30.30,10.0,NE,4.6,-,N/A,,Overcast,40,2013-02-23 11:55:00
7:15 AM,30.2,26.6,86,30.30,10.0,NNE,3.5,-,N/A,,Overcast,30,2013-02-23 12:15:00
7:35 AM,30.2,26.6,86,30.30,10.0,NNE,6.9,-,N/A,,Overcast,30,2013-02-23 12:35:00
7:55 AM,30.2,26.6,86,30.29,10.0,NNE,5.8,-,N/A,,Overcast,20,2013-02-23 12:55:00
8:15 AM,30.2,26.6,86,30.29,10.0,NNE,4.6,-,N/A,,Overcast,30,2013-02-23 13:15:00
8:35 AM,30.2,26.6,86,30.28,10.0,NNE,5.8,-,N/A,,Overcast,20,2013-02-23 13:35:00
8:55 AM,30.2,26.6,86,30.28,10.0,NE,5.8,-,N/A,,Overcast,40,2013-02-23 13:55:00
9:15 AM,30.2,28.4,93,30.27,10.0,NE,4.6,-,N/A,,Overcast,40,2013-02-23 14:15:00
9:35 AM,30.2,28.4,93,30.27,10.0,NNE,4.6,-,N/A,,Overcast,20,2013-02-23 14:35:00
9:55 AM,32.0,28.4,87,30.26,10.0,NE,6.9,-,N/A,,Overcast,50,2013-02-23 14:55:00
10:15 AM,32.0,28.4,87,30.26,10.0,ESE,3.5,-,N/A,,Overcast,110,2013-02-23 15:15:00
10:35 AM,35.6,26.6,70,30.26,10.0,SE,6.9,-,N/A,,Overcast,130,2013-02-23 15:35:00
10:55 AM,35.6,26.6,70,30.25,10.0,SE,9.2,-,N/A,,Overcast,130,2013-02-23 15:55:00
11:15 AM,35.6,26.6,70,30.24,10.0,SE,11.5,-,N/A,,Overcast,130,2013-02-23 16:15:00
11:35 AM,35.6,26.6,70,30.24,10.0,SE,11.5,-,N/A,,Overcast,130,2013-02-23 16:35:00
11:55 AM,35.6,26.6,70,30.23,10.0,SE,10.4,-,N/A,,Overcast,130,2013-02-23 16:55:00
12:15 PM,35.6,26.6,70,30.23,10.0,SE,12.7,-,N/A,,Overcast,130,2013-02-23 17:15:00
12:35 PM,33.8,26.6,75,30.22,10.0,ESE,10.4,-,N/A,,Overcast,110,2013-02-23 17:35:00
12:55 PM,33.8,26.6,75,30.21,10.0,ESE,8.1,-,N/A,,Overcast,120,2013-02-23 17:55:00
1:15 PM,33.8,26.6,75,30.20,10.0,ESE,10.4,-,N/A,,Overcast,120,2013-02-23 18:15:00
1:35 PM,33.8,26.6,75,30.20,10.0,ESE,12.7,-,N/A,,Overcast,110,2013-02-23 18:35:00
1:55 PM,33.8,26.6,75,30.20,10.0,ESE,9.2,-,N/A,,Overcast,120,2013-02-23 18:55:00
2:15 PM,33.8,26.6,75,30.19,10.0,ESE,12.7,-,N/A,,Overcast,120,2013-02-23 19:15:00
2:35 PM,33.8,26.6,75,30.20,10.0,ESE,10.4,-,N/A,,Overcast,120,2013-02-23 19:35:00
2:55 PM,33.8,28.4,81,30.20,10.0,ESE,11.5,-,N/A,,Overcast,120,2013-02-23 19:55:00
3:15 PM,33.8,28.4,81,30.19,10.0,ESE,10.4,-,N/A,,Overcast,120,2013-02-23 20:15:00
3:35 PM,33.8,28.4,81,30.18,10.0,ESE,10.4,-,N/A,,Overcast,120,2013-02-23 20:35:00
3:55 PM,33.8,28.4,81,30.17,10.0,ESE,13.8,19.6,N/A,,Overcast,120,2013-02-23 20:55:00
4:15 PM,33.8,28.4,81,30.16,10.0,ESE,11.5,16.1,N/A,,Overcast,120,2013-02-23 21:15:00
4:35 PM,33.8,28.4,81,30.16,10.0,SE,13.8,-,N/A,,Overcast,130,2013-02-23 21:35:00
4:55 PM,33.8,28.4,81,30.16,10.0,SE,10.4,-,N/A,,Overcast,130,2013-02-23 21:55:00
5:15 PM,33.8,28.4,81,30.15,10.0,SE,13.8,17.3,N/A,,Overcast,130,2013-02-23 22:15:00
5:35 PM,33.8,28.4,81,30.14,10.0,ESE,12.7,17.3,N/A,,Overcast,120,2013-02-23 22:35:00
5:55 PM,33.8,28.4,81,30.13,10.0,ESE,15.0,-,N/A,,Overcast,110,2013-02-23 22:55:00
6:15 PM,33.8,28.4,81,30.14,10.0,ESE,13.8,-,N/A,,Overcast,120,2013-02-23 23:15:00
6:55 PM,33.8,26.6,75,30.14,10.0,ESE,10.4,-,N/A,,Overcast,120,2013-02-23 23:55:00
7:15 PM,33.8,26.6,75,30.14,10.0,SE,9.2,-,N/A,,Overcast,130,2013-02-24 00:15:00
7:35 PM,33.8,26.6,75,30.13,10.0,ESE,9.2,-,N/A,,Overcast,120,2013-02-24 00:35:00
7:55 PM,33.8,26.6,75,30.12,10.0,ESE,10.4,-,N/A,,Overcast,120,2013-02-24 00:55:00
8:15 PM,33.8,28.4,81,30.12,10.0,ESE,12.7,-,N/A,,Overcast,120,2013-02-24 01:15:00
8:35 PM,33.8,26.6,75,30.12,10.0,SE,11.5,-,N/A,,Mostly Cloudy,130,2013-02-24 01:35:00
8:55 PM,33.8,26.6,75,30.11,10.0,ESE,12.7,-,N/A,,Mostly Cloudy,110,2013-02-24 01:55:00
9:15 PM,33.8,26.6,75,30.10,10.0,ESE,10.4,-,N/A,,Mostly Cloudy,110,2013-02-24 02:15:00
9:35 PM,33.8,26.6,75,30.09,10.0,East,10.4,-,N/A,,Partly Cloudy,100,2013-02-24 02:35:00
9:55 PM,33.8,26.6,75,30.08,9.0,East,9.2,-,N/A,,Mostly Cloudy,100,2013-02-24 02:55:00
10:15 PM,33.8,28.4,81,30.07,8.0,East,13.8,-,N/A,,Overcast,90,2013-02-24 03:15:00
10:35 PM,32.0,28.4,87,30.06,8.0,East,11.5,-,N/A,,Scattered Clouds,90,2013-02-24 03:35:00
10:55 PM,32.0,28.4,87,30.05,5.0,East,12.7,-,N/A,,Mostly Cloudy,80,2013-02-24 03:55:00
11:15 PM,32.0,28.4,87,30.05,8.0,East,11.5,-,N/A,,Overcast,80,2013-02-24 04:15:00
11:35 PM,32.0,28.4,87,30.05,3.0,ENE,9.2,-,N/A,,Overcast,70,2013-02-24 04:35:00
11:55 PM,30.2,30.2,100,30.04,2.5,ENE,8.1,-,N/A,,Overcast,60,2013-02-24 04:55:00